Overview Statistics Trail Chart Weather Telemetry Raw packets
 

This is the latest recevied weather packets stored in our database for station/object N0MR. If no packets are shown the sender has not sent any weather packets the latest 10 day(s).

<< 32 33 34 35 36 37 38 >>
Time Temp. Humidity Pressure Rain* Wind** Luminosity Snow
1788057345 17.78° C 92% 1012.4 hPa 0 mm - - -
1788056746 17.78° C 92% 1012.4 hPa 0 mm - - -
1788056146 17.78° C 91% 1012.3 hPa 0 mm - - -
1788055546 17.78° C 91% 1012.3 hPa 0 mm - - -
1788054946 18.33° C 91% 1012 hPa 0 mm - - -
1788054346 18.33° C 90% 1011.8 hPa 0 mm - - -
1788053746 18.33° C 90% 1011.8 hPa 0 mm - - -
1788053146 18.89° C 88% 1011.6 hPa 0 mm - - -
1788052547 18.89° C 88% 1011.6 hPa 0 mm - - -
1788051951 19.44° C 88% 1011.6 hPa 0 mm - - -
1788051346 19.44° C 88% 1011.6 hPa 0 mm - - -
1788050747 19.44° C 86% 1011.6 hPa 0 mm - - -
1788050147 19.44° C 86% 1011.6 hPa 0 mm - - -
1788049546 20° C 86% 1011.6 hPa 0 mm - - -
1788048946 20° C 86% 1011.6 hPa 0 mm - - -
1788048346 20° C 84% 1011.6 hPa 0 mm - - -
1788047746 20° C 84% 1011.6 hPa 0 mm - - -
1788047147 20.56° C 83% 1011.6 hPa 0 mm - - -
1788046547 20.56° C 83% 1011.6 hPa 0 mm - - -
1788045946 21.11° C 81% 1011.7 hPa 0 mm - - -
1788045346 21.11° C 81% 1011.7 hPa 0 mm - - -
1788044746 21.11° C 80% 1011.8 hPa 0 mm - - -
1788044153 21.11° C 80% 1011.8 hPa 0 mm - - -
1788042947 22.22° C 77% 1011.7 hPa 0 mm - - -
1788042347 22.22° C 77% 1011.7 hPa 0 mm - - -

* Rain latest hour (hover to see other rain measurements)
** Current wind speed in m/s (hover to see current wind gust speed)